カタログに戻る

COSMOS 970 DEB

運用中LEO
NORAD 65013·DEBRIS·🇷🇺 Russia

打ち上げ Dec 21, 1977 から Baikonur Cosmodrome

Loading…

次のパス (今後24時間)

TLE

最新Source: Space-Track

元期: Sep 13, 2026, 19:44 UTC

1 65013U 77121EA  26256.82258538  .00000015  00000-0  12015-3 0  9993
2 65013  65.9211 303.6537 0104420 327.7611  31.7088 13.59148244145194

AllMySatでCOSMOS 970 DEBをリアルタイム追跡

Download on the App Store